| time (UTC) | temp C | wind direction | speed KPH | gust KPH | rain 1hr cm | rain 24hr cm | rain mn cm | humidity % | barometer mb |
| 20260504034503 | 14 | 0 | 0.0 | 0.0 | 0.00 | 0.00 | 0.00 | 44 | 1009.1 |
| 20260504034005 | 14 | 0 | 0.0 | 0.0 | 0.00 | 0.00 | 0.00 | 43 | 1009.1 |
| 20260504033503 | 15 | 0 | 0.0 | 0.0 | 0.00 | 0.00 | 0.00 | 43 | 1009.1 |
| 20260504033003 | 15 | 0 | 0.0 | 0.0 | 0.00 | 0.00 | 0.00 | 42 | 1009.1 |
| 20260504032503 | 15 | 0 | 0.0 | 0.0 | 0.00 | 0.00 | 0.00 | 41 | 1009.1 |
| 20260504032003 | 15 | 0 | 0.0 | 0.0 | 0.00 | 0.00 | 0.00 | 40 | 1009.1 |
| 20260504031503 | 15 | 0 | 0.0 | 0.0 | 0.00 | 0.00 | 0.00 | 40 | 1009.1 |
| 20260504031004 | 16 | 0 | 0.0 | 0.0 | 0.00 | 0.00 | 0.00 | 39 | 1009.0 |
| 20260504030503 | 16 | 0 | 0.0 | 0.0 | 0.00 | 0.00 | 0.00 | 38 | 1009.0 |
| 20260504030003 | 16 | 0 | 0.0 | 0.0 | 0.00 | 0.00 | 0.00 | 37 | 1008.9 |
| 20260504025505 | 17 | 0 | 0.0 | 0.0 | 0.00 | 0.00 | 0.00 | 36 | 1008.9 |
| 20260504025003 | 17 | 0 | 0.0 | 0.0 | 0.00 | 0.00 | 0.00 | 36 | 1008.8 |
| 20260504024504 | 17 | 0 | 0.0 | 0.0 | 0.00 | 0.00 | 0.00 | 35 | 1008.8 |
| 20260504024003 | 18 | 0 | 0.0 | 0.0 | 0.00 | 0.00 | 0.00 | 35 | 1008.8 |
| 20260504023503 | 18 | 0 | 0.0 | 0.0 | 0.00 | 0.00 | 0.00 | 34 | 1008.7 |
| 20260504023003 | 18 | 0 | 0.0 | 0.0 | 0.00 | 0.00 | 0.00 | 34 | 1008.7 |
| 20260504022503 | 19 | 0 | 0.0 | 0.0 | 0.00 | 0.00 | 0.00 | 33 | 1008.6 |
| 20260504022003 | 20 | 22 | 0.0 | 3.2 | 0.00 | 0.00 | 0.00 | 32 | 1008.6 |
| 20260504021505 | 20 | 22 | 0.0 | 3.2 | 0.00 | 0.00 | 0.00 | 31 | 1008.6 |
| 20260504021003 | 20 | 0 | 0.0 | 0.0 | 0.00 | 0.00 | 0.00 | 31 | 1008.6 |
| 20260504020503 | 21 | 0 | 0.0 | 0.0 | 0.00 | 0.00 | 0.00 | 30 | 1008.5 |
| 20260504020003 | 21 | 0 | 0.0 | 0.0 | 0.00 | 0.00 | 0.00 | 29 | 1008.5 |
| 20260504015503 | 21 | 22 | 0.0 | 4.8 | 0.00 | 0.00 | 0.00 | 29 | 1008.5 |
| 20260504015003 | 22 | 22 | 0.0 | 4.8 | 0.00 | 0.00 | 0.00 | 28 | 1008.4 |
| 20260504014503 | 22 | 0 | 0.0 | 0.0 | 0.00 | 0.00 | 0.00 | 27 | 1008.4 |
| 20260504014003 | 23 | 0 | 0.0 | 0.0 | 0.00 | 0.00 | 0.00 | 26 | 1008.4 |
| 20260504013505 | 23 | 0 | 0.0 | 0.0 | 0.00 | 0.00 | 0.00 | 25 | 1008.4 |
| 20260504013003 | 24 | 0 | 0.0 | 0.0 | 0.00 | 0.00 | 0.00 | 24 | 1008.5 |
| 20260504012503 | 24 | 0 | 0.0 | 0.0 | 0.00 | 0.00 | 0.00 | 23 | 1008.4 |
| 20260504012003 | 25 | 0 | 0.0 | 0.0 | 0.00 | 0.00 | 0.00 | 23 | 1008.4 |
| 20260504011503 | 25 | 0 | 0.0 | 0.0 | 0.00 | 0.00 | 0.00 | 22 | 1008.3 |
| 20260504011003 | 25 | 0 | 0.0 | 0.0 | 0.00 | 0.00 | 0.00 | 21 | 1008.4 |
| 20260504010503 | 26 | 0 | 0.0 | 0.0 | 0.00 | 0.00 | 0.00 | 21 | 1008.3 |
| 20260504010003 | 26 | 0 | 0.0 | 0.0 | 0.00 | 0.00 | 0.00 | 21 | 1008.4 |
| 20260504005503 | 26 | 22 | 0.0 | 1.6 | 0.00 | 0.00 | 0.00 | 20 | 1008.4 |
| 20260504005004 | 26 | 22 | 0.0 | 1.6 | 0.00 | 0.00 | 0.00 | 21 | 1008.5 |
| 20260504004505 | 26 | 22 | 0.0 | 3.2 | 0.00 | 0.00 | 0.00 | 21 | 1008.5 |
| 20260504004003 | 26 | 22 | 0.0 | 3.2 | 0.00 | 0.00 | 0.00 | 22 | 1008.5 |
| 20260504003503 | 26 | 0 | 0.0 | 0.0 | 0.00 | 0.00 | 0.00 | 24 | 1008.6 |
| 20260504003003 | 25 | 0 | 0.0 | 0.0 | 0.00 | 0.00 | 0.00 | 24 | 1008.6 |
| 20260504002503 | 25 | 0 | 0.0 | 0.0 | 0.00 | 0.00 | 0.00 | 22 | 1008.6 |
| 20260504002003 | 25 | 0 | 0.0 | 0.0 | 0.00 | 0.00 | 0.00 | 22 | 1008.6 |
| 20260504001503 | 25 | 22 | 0.0 | 1.6 | 0.00 | 0.00 | 0.00 | 21 | 1008.6 |
| 20260504001005 | 25 | 22 | 0.0 | 4.8 | 0.00 | 0.00 | 0.00 | 19 | 1008.6 |
| 20260504000503 | 26 | 22 | 0.0 | 4.8 | 0.00 | 0.00 | 0.00 | 19 | 1008.7 |
| 20260504000004 | 26 | 105 | 0.0 | 1.6 | 0.00 | 0.00 | 0.00 | 18 | 1008.8 |
| 20260503235503 | 27 | 86 | 1.6 | 4.8 | 0.00 | 0.00 | 0.00 | 19 | 1008.8 |
| 20260503235003 | 27 | 47 | 1.6 | 4.8 | 0.00 | 0.00 | 0.00 | 18 | 1008.8 |
| 20260503234503 | 27 | 350 | 1.6 | 8.0 | 0.00 | 0.00 | 0.00 | 19 | 1008.9 |
| 20260503234003 | 27 | 347 | 3.2 | 8.0 | 0.00 | 0.00 | 0.00 | 18 | 1008.9 |
| 20260503233503 | 27 | 360 | 1.6 | 8.0 | 0.00 | 0.00 | 0.00 | 19 | 1008.9 |
| 20260503233005 | 28 | 88 | 0.0 | 3.2 | 0.00 | 0.00 | 0.00 | 17 | 1009.0 |
| 20260503232503 | 28 | 103 | 0.0 | 3.2 | 0.00 | 0.00 | 0.00 | 19 | 1008.9 |
| 20260503232005 | 28 | 68 | 0.0 | 1.6 | 0.00 | 0.00 | 0.00 | 19 | 1008.9 |
| 20260503231503 | 27 | 74 | 0.0 | 1.6 | 0.00 | 0.00 | 0.00 | 19 | 1008.9 |
| 20260503231003 | 27 | 76 | 0.0 | 4.8 | 0.00 | 0.00 | 0.00 | 19 | 1008.9 |
| 20260503230503 | 27 | 7 | 1.6 | 8.0 | 0.00 | 0.00 | 0.00 | 20 | 1008.9 |
| 20260503230003 | 27 | 358 | 1.6 | 8.0 | 0.00 | 0.00 | 0.00 | 19 | 1009.0 |
| 20260503225503 | 27 | 353 | 1.6 | 4.8 | 0.00 | 0.00 | 0.00 | 19 | 1009.0 |
| 20260503225003 | 27 | 330 | 1.6 | 8.0 | 0.00 | 0.00 | 0.00 | 18 | 1009.0 |
| 20260503224505 | 27 | 343 | 1.6 | 8.0 | 0.00 | 0.00 | 0.00 | 17 | 1009.0 |
| 20260503224003 | 27 | 5 | 1.6 | 6.4 | 0.00 | 0.00 | 0.00 | 18 | 1009.1 |
| 20260503223503 | 28 | 9 | 1.6 | 6.4 | 0.00 | 0.00 | 0.00 | 17 | 1009.1 |
| 20260503223003 | 27 | 351 | 3.2 | 14.5 | 0.00 | 0.00 | 0.00 | 18 | 1009.2 |
| 20260503222503 | 27 | 336 | 3.2 | 14.5 | 0.00 | 0.00 | 0.00 | 18 | 1009.3 |
| 20260503222003 | 27 | 329 | 4.8 | 12.9 | 0.00 | 0.00 | 0.00 | 18 | 1009.4 |
| 20260503221503 | 27 | 343 | 3.2 | 12.9 | 0.00 | 0.00 | 0.00 | 18 | 1009.4 |
| 20260503221005 | 27 | 2 | 1.6 | 8.0 | 0.00 | 0.00 | 0.00 | 18 | 1009.5 |
| 20260503220503 | 27 | 344 | 1.6 | 8.0 | 0.00 | 0.00 | 0.00 | 18 | 1009.6 |
| 20260503220003 | 27 | 3 | 3.2 | 8.0 | 0.00 | 0.00 | 0.00 | 18 | 1009.7 |
| 20260503215503 | 27 | 347 | 3.2 | 14.5 | 0.00 | 0.00 | 0.00 | 19 | 1009.8 |
| 20260503215003 | 27 | 325 | 3.2 | 14.5 | 0.00 | 0.00 | 0.00 | 19 | 1009.8 |
| 20260503214503 | 28 | 327 | 3.2 | 12.9 | 0.00 | 0.00 | 0.00 | 18 | 1009.8 |
| 20260503214003 | 28 | 333 | 3.2 | 12.9 | 0.00 | 0.00 | 0.00 | 18 | 1010.0 |
| 20260503213505 | 28 | 160 | 3.2 | 9.7 | 0.00 | 0.00 | 0.00 | 19 | 1010.0 |
| 20260503213003 | 28 | 151 | 3.2 | 9.7 | 0.00 | 0.00 | 0.00 | 17 | 1010.0 |
| 20260503212503 | 28 | 95 | 1.6 | 4.8 | 0.00 | 0.00 | 0.00 | 19 | 1010.1 |
| 20260503212003 | 28 | 55 | 1.6 | 4.8 | 0.00 | 0.00 | 0.00 | 20 | 1010.2 |
| 20260503211503 | 27 | 56 | 1.6 | 4.8 | 0.00 | 0.00 | 0.00 | 24 | 1010.2 |
| 20260503211003 | 27 | 178 | 1.6 | 6.4 | 0.00 | 0.00 | 0.00 | 20 | 1010.3 |
| 20260503210503 | 27 | 189 | 1.6 | 6.4 | 0.00 | 0.00 | 0.00 | 20 | 1010.4 |
| 20260503210003 | 27 | 27 | 0.0 | 3.2 | 0.00 | 0.00 | 0.00 | 20 | 1010.5 |
| 20260503205503 | 26 | 354 | 0.0 | 3.2 | 0.00 | 0.00 | 0.00 | 23 | 1010.7 |
| 20260503205003 | 26 | 337 | 3.2 | 6.4 | 0.00 | 0.00 | 0.00 | 23 | 1010.8 |
| 20260503204503 | 26 | 339 | 3.2 | 6.4 | 0.00 | 0.00 | 0.00 | 21 | 1010.9 |
| 20260503204003 | 26 | 355 | 3.2 | 6.4 | 0.00 | 0.00 | 0.00 | 21 | 1011.0 |
| 20260503203504 | 26 | 357 | 3.2 | 6.4 | 0.00 | 0.00 | 0.00 | 23 | 1011.0 |
| 20260503203003 | 26 | 350 | 1.6 | 8.0 | 0.00 | 0.00 | 0.00 | 22 | 1011.1 |
| 20260503202503 | 25 | 359 | 3.2 | 8.0 | 0.00 | 0.00 | 0.00 | 22 | 1011.1 |
| 20260503202003 | 25 | 14 | 3.2 | 9.7 | 0.00 | 0.00 | 0.00 | 21 | 1011.2 |
| 20260503201504 | 26 | 12 | 3.2 | 9.7 | 0.00 | 0.00 | 0.00 | 22 | 1011.3 |
| 20260503201003 | 26 | 6 | 1.6 | 4.8 | 0.00 | 0.00 | 0.00 | 21 | 1011.3 |
| 20260503200503 | 26 | 5 | 3.2 | 8.0 | 0.00 | 0.00 | 0.00 | 23 | 1011.4 |
| 20260503200003 | 26 | 23 | 1.6 | 8.0 | 0.00 | 0.00 | 0.00 | 22 | 1011.4 |
| 20260503195505 | 26 | 38 | 1.6 | 4.8 | 0.00 | 0.00 | 0.00 | 21 | 1011.4 |
| 20260503195003 | 26 | 47 | 1.6 | 6.4 | 0.00 | 0.00 | 0.00 | 23 | 1011.4 |
| 20260503194503 | 26 | 50 | 1.6 | 6.4 | 0.00 | 0.00 | 0.00 | 23 | 1011.4 |
| 20260503194003 | 26 | 25 | 1.6 | 8.0 | 0.00 | 0.00 | 0.00 | 24 | 1011.5 |
| 20260503193503 | 26 | 1 | 1.6 | 8.0 | 0.00 | 0.00 | 0.00 | 23 | 1011.5 |
| 20260503193003 | 26 | 10 | 1.6 | 6.4 | 0.00 | 0.00 | 0.00 | 22 | 1011.6 |
| 20260503192503 | 26 | 28 | 3.2 | 6.4 | 0.00 | 0.00 | 0.00 | 22 | 1011.6 |
| 20260503192003 | 26 | 24 | 3.2 | 9.7 | 0.00 | 0.00 | 0.00 | 24 | 1011.6 |
| 20260503191503 | 26 | 40 | 3.2 | 9.7 | 0.00 | 0.00 | 0.00 | 21 | 1011.5 |
| 20260503191005 | 26 | 71 | 1.6 | 6.4 | 0.00 | 0.00 | 0.00 | 24 | 1011.6 |
| 20260503190504 | 26 | 25 | 1.6 | 8.0 | 0.00 | 0.00 | 0.00 | 25 | 1011.7 |
| 20260503190003 | 25 | 32 | 3.2 | 8.0 | 0.00 | 0.00 | 0.00 | 24 | 1011.9 |
| 20260503185503 | 25 | 57 | 1.6 | 4.8 | 0.00 | 0.00 | 0.00 | 23 | 1011.9 |
| 20260503185003 | 25 | 80 | 1.6 | 4.8 | 0.00 | 0.00 | 0.00 | 25 | 1012.0 |
| 20260503184503 | 26 | 89 | 1.6 | 4.8 | 0.00 | 0.00 | 0.00 | 24 | 1012.2 |
| 20260503184003 | 25 | 70 | 1.6 | 4.8 | 0.00 | 0.00 | 0.00 | 24 | 1012.4 |
| 20260503183503 | 25 | 76 | 1.6 | 4.8 | 0.00 | 0.00 | 0.00 | 25 | 1012.4 |
| 20260503183003 | 25 | 95 | 1.6 | 6.4 | 0.00 | 0.00 | 0.00 | 24 | 1012.4 |
| 20260503182503 | 25 | 63 | 1.6 | 6.4 | 0.00 | 0.00 | 0.00 | 24 | 1012.6 |
| 20260503182003 | 25 | 34 | 1.6 | 6.4 | 0.00 | 0.00 | 0.00 | 23 | 1012.7 |
| 20260503181505 | 25 | 18 | 3.2 | 8.0 | 0.00 | 0.00 | 0.00 | 24 | 1012.8 |
| 20260503181003 | 25 | 17 | 3.2 | 8.0 | 0.00 | 0.00 | 0.00 | 23 | 1012.9 |
| 20260503180503 | 24 | 18 | 3.2 | 8.0 | 0.00 | 0.00 | 0.00 | 25 | 1013.0 |
| 20260503180003 | 24 | 7 | 3.2 | 8.0 | 0.00 | 0.00 | 0.00 | 24 | 1013.1 |
| 20260503175503 | 24 | 7 | 1.6 | 4.8 | 0.00 | 0.00 | 0.00 | 25 | 1013.3 |
| 20260503175005 | 24 | 53 | 1.6 | 4.8 | 0.00 | 0.00 | 0.00 | 24 | 1013.4 |
| 20260503174503 | 24 | 64 | 1.6 | 4.8 | 0.00 | 0.00 | 0.00 | 24 | 1013.5 |
| 20260503174003 | 24 | 73 | 1.6 | 4.8 | 0.00 | 0.00 | 0.00 | 25 | 1013.5 |
| 20260503173503 | 24 | 79 | 1.6 | 4.8 | 0.00 | 0.00 | 0.00 | 25 | 1013.6 |
| 20260503173003 | 24 | 32 | 1.6 | 8.0 | 0.00 | 0.00 | 0.00 | 26 | 1013.6 |
| 20260503172504 | 23 | 356 | 3.2 | 9.7 | 0.00 | 0.00 | 0.00 | 26 | 1013.7 |
| 20260503172003 | 23 | 328 | 3.2 | 9.7 | 0.00 | 0.00 | 0.00 | 25 | 1013.8 |
| 20260503171505 | 23 | 330 | 3.2 | 8.0 | 0.00 | 0.00 | 0.00 | 24 | 1013.8 |
| 20260503171003 | 23 | 345 | 1.6 | 8.0 | 0.00 | 0.00 | 0.00 | 24 | 1013.9 |
| 20260503170503 | 23 | 344 | 3.2 | 12.9 | 0.00 | 0.00 | 0.00 | 25 | 1014.0 |
| 20260503151003 | 18 | 336 | 1.6 | 6.4 | 0.00 | 0.00 | 0.00 | 37 | 1014.4 |
| 20260503150503 | 18 | 332 | 1.6 | 3.2 | 0.00 | 0.00 | 0.00 | 37 | 1014.4 |
| 20260503131003 | 10 | 228 | 4.8 | 9.7 | 0.00 | 0.00 | 0.00 | 53 | 1014.5 |
| 20260503130505 | 10 | 229 | 4.8 | 9.7 | 0.00 | 0.00 | 0.00 | 53 | 1014.4 |
| 20260503110504 | 6 | 221 | 4.8 | 16.1 | 0.00 | 0.00 | 0.00 | 62 | 1013.9 |
| 20260503090503 | 9 | 210 | 8.0 | 17.7 | 0.00 | 0.00 | 0.00 | 53 | 1015.0 |
| 20260503081503 | 10 | 220 | 8.0 | 14.5 | 0.00 | 0.00 | 0.00 | 49 | 1015.4 |
| 20260503081003 | 10 | 222 | 8.0 | 14.5 | 0.00 | 0.00 | 0.00 | 49 | 1015.5 |
| 20260503080505 | 10 | 223 | 8.0 | 14.5 | 0.00 | 0.00 | 0.00 | 48 | 1015.5 |
| 20260503072503 | 10 | 211 | 8.0 | 16.1 | 0.00 | 0.00 | 0.00 | 47 | 1015.6 |
| 20260503072003 | 10 | 211 | 8.0 | 14.5 | 0.00 | 0.00 | 0.00 | 46 | 1015.7 |
| 20260503071503 | 10 | 211 | 8.0 | 14.5 | 0.00 | 0.00 | 0.00 | 46 | 1015.7 |
| 20260503071003 | 10 | 213 | 8.0 | 12.9 | 0.00 | 0.00 | 0.00 | 45 | 1015.8 |
| 20260503070503 | 10 | 215 | 8.0 | 12.9 | 0.00 | 0.00 | 0.00 | 45 | 1015.8 |
| 20260503055003 | 12 | 221 | 8.0 | 14.5 | 0.00 | 0.00 | 0.00 | 42 | 1015.9 |
| 20260503054503 | 12 | 220 | 6.4 | 14.5 | 0.00 | 0.00 | 0.00 | 42 | 1015.9 |
| 20260503054004 | 12 | 217 | 6.4 | 12.9 | 0.00 | 0.00 | 0.00 | 41 | 1015.9 |
| 20260503053505 | 12 | 214 | 6.4 | 12.9 | 0.00 | 0.00 | 0.00 | 41 | 1015.9 |
| 20260503053003 | 12 | 218 | 6.4 | 14.5 | 0.00 | 0.00 | 0.00 | 41 | 1015.9 |
| 20260503052503 | 12 | 219 | 6.4 | 19.3 | 0.00 | 0.00 | 0.00 | 41 | 1016.0 |
| 20260503052003 | 12 | 217 | 6.4 | 19.3 | 0.00 | 0.00 | 0.00 | 40 | 1015.9 |
| 20260503051504 | 12 | 214 | 6.4 | 14.5 | 0.00 | 0.00 | 0.00 | 41 | 1016.0 |
| 20260503051005 | 12 | 213 | 6.4 | 14.5 | 0.00 | 0.00 | 0.00 | 41 | 1016.0 |
| 20260503050503 | 12 | 215 | 6.4 | 14.5 | 0.00 | 0.00 | 0.00 | 41 | 1016.0 |
| 20260503050003 | 12 | 218 | 4.8 | 12.9 | 0.00 | 0.00 | 0.00 | 41 | 1016.0 |
| 20260503045503 | 12 | 220 | 4.8 | 12.9 | 0.00 | 0.00 | 0.00 | 41 | 1016.0 |
| 20260503045003 | 13 | 219 | 4.8 | 14.5 | 0.00 | 0.00 | 0.00 | 40 | 1016.0 |
| 20260503044503 | 13 | 219 | 4.8 | 14.5 | 0.00 | 0.00 | 0.00 | 39 | 1016.0 |
| 20260503044004 | 13 | 219 | 4.8 | 11.3 | 0.00 | 0.00 | 0.00 | 38 | 1016.0 |
| 20260503043503 | 14 | 218 | 4.8 | 9.7 | 0.00 | 0.00 | 0.00 | 38 | 1016.0 |
| 20260503043003 | 14 | 209 | 4.8 | 9.7 | 0.00 | 0.00 | 0.00 | 36 | 1016.0 |
| 20260503042503 | 15 | 196 | 6.4 | 11.3 | 0.00 | 0.00 | 0.00 | 37 | 1016.0 |
| 20260503042003 | 15 | 193 | 8.0 | 12.9 | 0.00 | 0.00 | 0.00 | 35 | 1016.0 |
| 20260503041505 | 15 | 196 | 6.4 | 12.9 | 0.00 | 0.00 | 0.00 | 35 | 1016.1 |
| 20260503041003 | 15 | 191 | 6.4 | 12.9 | 0.00 | 0.00 | 0.00 | 35 | 1016.2 |
| 20260503040503 | 15 | 186 | 6.4 | 12.9 | 0.00 | 0.00 | 0.00 | 35 | 1016.2 |
| 20260503040003 | 15 | 185 | 6.4 | 11.3 | 0.00 | 0.00 | 0.00 | 36 | 1016.2 |
| 20260503035503 | 15 | 184 | 6.4 | 11.3 | 0.00 | 0.00 | 0.00 | 37 | 1016.3 |
| 20260503035003 | 15 | 183 | 4.8 | 11.3 | 0.00 | 0.00 | 0.00 | 37 | 1016.3 |